Terug naar catalogus

FENGYUN 1C DEB

ActiefSSO
NORAD 31387·DEBRIS·🇨🇳 China

Gelanceerd May 10, 1999 vanaf Taiyuan Satellite Launch Center

Loading…

Volgende Passages (komende 24 uur)

TLE

VersSource: Space-Track

Epoch: Sep 14, 2026, 11:40 UTC

1 31387U 99025BST 26257.48659294  .00000289  00000-0  13444-3 0  9994
2 31387  99.1312 147.6819 0241786 114.6726 247.9830 14.13850288  1846

Volg FENGYUN 1C DEB in realtime met AllMySat

Download on the App Store